Regional Weather Roundup
Issued by NWS

Home | Current Version | Previous Version | Graphics & Text | Print | Product List | Glossary On
Versions: 1 2 3 4 5 6 7 8 9 10 11 12 13 14 15 16 17 18 19 20 21 22 23 24 25 26 27 28 29 30 31 32 33 34 35 36 37 38 39 40 41 42 43 44 45 46 47 48 49 50
000
ASUS43 KBIS 262202
RWRND

NORTH DAKOTA REGIONAL WEATHER ROUNDUP
NATIONAL WEATHER SERVICE BISMARCK ND
500 PM CDT FRI AUG 26 2016

NOTE: "FAIR" INDICATES FEW OR NO CLOUDS BELOW 12,000 FEET WITH NO
SIGNIFICANT WEATHER AND/OR OBSTRUCTIONS TO VISIBILITY.


NDZ001>003-009>011-017-262300-
NORTHWEST NORTH DAKOTA

CITY           SKY/WX    TMP DP  RH WIND       PRES   REMARKS
WILLISTON      CLOUDY    76  41  28 S9        29.93F
MINOT          PTSUNNY   76  44  32 S22G28    29.94F
MINOT AFB      PTSUNNY   76  47  35 S21       29.92F
$$

NDZ018>021-031>035-040>046-262300-
SOUTHWEST NORTH DAKOTA

CITY           SKY/WX    TMP DP  RH WIND       PRES   REMARKS
BISMARCK       SUNNY     72  51  47 S18G29    30.04F
DICKINSON      MOSUNNY   70  42  36 S17       29.98F
GARRISON         N/A     66  54  65 S18G26    30.00S
HETTINGER ARPT CLOUDY    67  52  58 SE6       30.02F
$$

NDZ004>008-012>016-024-026-027-054-262300-
NORTHEAST NORTH DAKOTA

CITY           SKY/WX    TMP DP  RH WIND       PRES   REMARKS
GRAND FORKS    CLOUDY    72  55  55 SW12      30.02S
GRND FRKS AFB  CLOUDY    72  54  53 SW10      30.02S
DEVILS LAKE    SUNNY     73  49  42 SW15      30.01F
$$

NDZ022-023-025-028>030-036>039-047>053-262300-
SOUTHEAST NORTH DAKOTA

CITY           SKY/WX    TMP DP  RH WIND       PRES   REMARKS
FARGO          MOSUNNY   73  49  42 SW14      30.07S
JAMESTOWN      CLOUDY    65  51  60 SW13      30.07F
$$





USA.gov is the U.S. government's official web portal to all federal, state and local government web resources and services.